Regional Weather Roundup
Issued by NWS

Home | Current Version | Previous Version | Graphics & Text | Print | Product List | Glossary Off
Versions: 1 2 3 4 5 6 7 8 9 10 11 12 13 14 15 16 17 18 19 20 21 22 23 24 25 26 27 28 29 30 31 32 33 34 35 36 37 38 39 40 41 42 43 44 45 46 47 48 49 50

000
ASUS43 KFSD 180410
RWRSD

WEATHER ROUNDUP FOR SOUTH DAKOTA
NATIONAL WEATHER SERVICE SIOUX FALLS SD
1000 PM CST FRI NOV 17 2017

NOTE: "FAIR" INDICATES FEW OR NO CLOUDS BELOW 12,000 FEET WITH NO
SIGNIFICANT WEATHER AND/OR OBSTRUCTIONS TO VISIBILITY.


SDZ001>005-009-010-012>017-180500-
NORTHWEST AND NORTH CENTRAL SOUTH DAKOTA

CITY           SKY/WX    TMP DP  RH WIND       PRES   REMARKS
BUFFALO          N/A     32  30  92 W9        29.74R WCI  24
FAITH            N/A     35  35 100 S5        29.77R
MOBRIDGE       PTCLDY    34  26  72 N5        29.74R WCI  30
$$

SDZ012>016-024>037-041>051-057-063-072>074-180500-
SOUTHWEST AND SOUTH CENTRAL SOUTH DAKOTA

CITY           SKY/WX    TMP DP  RH WIND       PRES   REMARKS
RAPID CTY ARPT CLOUDY    35  33  92 NW7       29.82R WCI  29
PIERRE         CLOUDY    37  34  89 NW6       29.78R
CUSTER         CLOUDY    31  22  69 NW10      29.77R WCI  22
ELLSWORTH AFB  MOCLDY    37  37 100 NW10      29.81R
PHILIP         LGT RAIN  37  37 100 SW3       29.81R
PINE RIDGE     CLOUDY    37  34  89 CALM      29.79R
SPEARFISH      FAIR      37  28  70 W15       29.83R
WINNER         CLOUDY    40  36  86 CALM      29.78R
$$

SDZ004>011-016>023-039-040-180500-
NORTHEAST SOUTH DAKOTA

CITY           SKY/WX    TMP DP  RH WIND       PRES   REMARKS
ABERDEEN       CLOUDY    29  20  69 N7        29.80R WCI  22
WATERTOWN      CLOUDY    31  25  78 N8        29.73S WCI  23
BROOKINGS      CLOUDY    33  30  88 N10       29.72R WCI  25
SISSETON         N/A     28  21  75 NW10      29.76S WCI  19
$$

SDZ017-020-022-023-036>040-048>070-180500-
SOUTHEAST SOUTH DAKOTA

CITY           SKY/WX    TMP DP  RH WIND       PRES   REMARKS
SIOUX FALLS    CLOUDY    38  32  79 N9        29.68R
HURON          CLOUDY    35  24  64 N8        29.75R WCI  29
CHAMBERLAIN    CLOUDY    41  33  71 N9        29.77R
MITCHELL       CLOUDY    39  30  70 N10       29.76R
YANKTON        CLOUDY    42  36  79 N9        29.70R
$$

ABBREVIATIONS USED IN REMARKS
   TC - TEMPERATURE IN CELSIUS
  WCI - WIND CHILL INDEX
   HX - HEAT INDEX
  VSB - VISIBILITY





USA.gov is the U.S. government's official web portal to all federal, state and local government web resources and services.